Location: Anusin
(52.1529°N, 19.3238°E)
Time: 19:55:37
(UTC+00:00)

Daily predictions for brighter satellites

Satellite Brightness Start Highest point End
(mag) Time Altitude Azimuth Time Altitude Azimuth Time Altitude Azimuth
USA 238 DEB 4.0 16:57:20 10° NW 17:04:31 88° SW 17:12:01 10° SE
USA 238 4.0 16:57:26 10° NW 17:04:38 88° SW 17:12:07 10° SE
Cosmos 1536 Rocket 4.1 17:01:12 10° N 17:05:24 38° ENE 17:09:34 10° SE
Cosmos 1125 Rocket 4.5 17:02:58 10° SSE 17:07:16 26° E 17:11:36 10° NE
Abrixas rocket 3.0 17:05:08 10° WSW 17:07:45 33° S 17:10:22 10° ESE
CZ-4B R/B 3.7 17:05:16 10° N 17:08:22 31° WNW 17:11:29 10° SW
CREW DRAGON DEMO-1 DEB 3.3 17:05:59 10° W 17:08:56 53° SSW 17:11:54 10° ESE
Cosmos 1464 Rocket 4.2 17:05:39 10° SSE 17:11:31 49° E 17:17:28 10° NNE
CZ-2C R/B 3.2 17:09:56 10° SSE 17:15:20 74° ENE 17:21:03 10° NNW
SJ-6B 4.2 17:13:35 10° ESE 17:16:22 20° ENE 17:19:11 10° NNE
SJ-11-01 4.3 17:11:57 10° SSE 17:16:35 61° ENE 17:21:12 10° N
ADEOS Rocket 4.4 17:12:33 10° N 17:17:36 38° WNW 17:22:40 10° SW
CZ-4 R/B 1.8 17:13:54 10° S 17:18:06 73° WSW 17:22:16 10° NNW
GP-B 4.2 17:14:08 10° N 17:18:27 51° W 17:22:45 10° SSW
CZ-2D R/B 4.0 17:14:55 10° S 17:18:44 58° WSW 17:22:36 10° NNW
Cosmos 1782 Rocket 4.0 17:15:24 10° SSW 17:19:49 71° WNW 17:24:19 10° N
Cosmos 1674 3.4 17:16:37 10° N 17:20:10 33° ENE 17:23:40 10° SE
Okean-O 3.3 17:16:03 10° S 17:20:27 62° WSW 17:24:53 10° NNW
MOS 1 Rocket 3.7 17:18:49 10° NNE 17:22:50 33° E 17:26:43 10° SSE
PSLV R/B 4.4 17:19:01 10° N 17:23:12 68° WNW 17:27:23 10° SSW
In-Cosmos 22 4.1 17:22:12 10° NNW 17:27:33 82° ENE 17:32:56 10° SSE
NOSS 3-2 (A) 4.4 17:21:37 10° NW 17:28:56 68° SW 17:37:14 10° SSE
Cosmos 1048 Rocket 4.1 17:24:33 10° NNW 17:29:54 86° WSW 17:35:17 10° SSE
ARGOS 3.2 17:25:14 10° SSE 17:30:30 61° ENE 17:35:50 10° N
CZ-2C R/B 3.7 17:26:06 10° NE 17:30:41 25° E 17:35:17 10° SE
NOSS 2-2 (C) 3.2 17:27:56 10° SW 17:31:29 88° NW 17:35:39 10° NE
FREGAT/IRIS 3.9 17:33:45 16° E 17:34:36 18° ENE 17:36:29 10° NNE
Cosmos 2082 Rocket 3.5 17:30:54 10° NNW 17:35:31 25° NE 17:39:26 13° E
DMSP B5D1-3 4.5 17:31:36 10° NNE 17:36:42 65° ESE 17:41:46 10° S
Cosmos 1891 Rocket 4.4 17:31:37 10° S 17:37:41 77° E 17:43:43 10° NNE
Cosmos 1340 Rocket 4.4 17:39:40 15° E 17:40:01 15° E 17:42:20 10° NE
Cosmos 2151 Rocket 3.6 17:36:04 10° S 17:40:27 58° E 17:44:55 10° NNE
Lacrosse 5 rocket 2.3 17:37:01 10° WNW 17:41:11 44° N 17:45:05 12° ENE
Cosmos 1733 4.4 17:39:18 10° SE 17:42:15 22° E 17:45:13 10° NE
Cosmos 494 Rocket 4.0 17:37:38 10° NNW 17:42:57 83° ENE 17:48:13 10° SSE
HJ-1C 3.6 17:42:01 10° S 17:45:18 73° W 17:48:37 10° NNW
Meteor 1-15 Rocket 4.4 17:40:40 10° SSE 17:46:04 48° E 17:51:37 10° NNE
COSMO-SKYMED 1 4.1 17:44:03 10° N 17:48:08 41° WNW 17:52:12 10° SW
Nadezhda 4 Rocket 3.9 17:45:38 10° N 17:51:48 86° E 17:57:56 10° S
NOSS 7 (A) 4.5 17:49:31 10° SW 17:52:40 64° SE 17:55:13 13° NE
Ariane Rocket 3.1 17:48:41 10° SE 17:53:39 58° ENE 17:58:40 10° N
Cosmos 1805 3.7 17:50:06 10° SSE 17:53:44 38° E 17:57:23 10° NNE
Cosmos 1269 Rocket 4.1 17:49:08 10° NNW 17:54:26 63° ENE 17:59:06 13° SE
H-2A R/B 2.3 17:49:39 10° S 17:54:39 72° WSW 17:59:51 10° NNW
SL-08 RB Rocket 3.6 17:51:09 10° SSE 17:55:42 69° ENE 18:00:13 10° N
OBJECT-B 2.0 17:55:36 23° E 17:56:21 25° ENE 17:59:05 10° N
SJ 16-02 4.2 17:55:04 10° W 17:57:48 16° NW 18:00:32 10° N
USA 116 3.9 17:54:55 10° N 17:58:30 71° WNW 18:02:30 10° SSW
Exosat Rocket 3.7 17:54:37 10° S 17:59:40 47° ESE 18:04:30 10° NE
Cosmos 2263 Rocket 3.8 17:56:00 10° WSW 18:01:07 36° NW 18:06:19 10° NNE
KORONAS-FOTON 3.8 17:57:35 10° N 18:01:33 86° E 18:05:29 10° S
COSMOS 2406 3.3 17:56:13 10° NNW 18:01:51 58° NE 18:05:50 19° SE
MetOp-A 4.2 17:58:58 11° SE 18:04:03 59° ENE 18:09:19 10° N
Cosmos 1844 Rocket 2.6 17:59:37 10° SSW 18:05:11 79° ESE 18:10:50 10° NNE
Cosmos 1626 2.5 18:02:14 10° N 18:05:49 43° ENE 18:07:28 26° SE
NOSS 3-2 (C) 4.4 17:59:51 10° NW 18:07:09 63° SW 18:15:25 10° SSE
Cosmos 2278 Rocket 3.3 18:10:00 22° E 18:10:00 22° E 18:13:50 10° NE
IRS-1A Rocket 4.3 18:06:00 10° SSE 18:11:53 81° ENE 18:17:44 10° NNW
ATLAS CENTAUR R/B 3.7 18:10:27 10° NNW 18:12:02 12° N 18:13:38 10° NNE
Meteor 2-5 Rocket 3.7 18:06:27 10° N 18:12:09 76° ENE 18:17:56 10° SSE
Cosmos 2034 Rocket 4.0 18:06:11 10° S 18:12:33 89° W 18:18:54 10° N
Cosmos 1844 3.6 18:06:58 10° SSW 18:12:38 74° ESE 18:18:16 10° NNE
ISS -3.8 18:10:15 10° W 18:13:38 79° S 18:14:49 37° E
USA 186 1.8 18:11:04 15° S 18:13:39 84° WSW 18:16:59 10° NNW
NOSS 3-4 (A) 3.7 18:08:43 10° S 18:14:13 41° ESE 18:20:06 10° NE
NOSS 3-4 (C) 3.7 18:08:51 10° S 18:14:20 41° ESE 18:20:12 10° NE
Meteor 1-24 Rocket 3.7 18:09:14 10° N 18:14:45 63° ENE 18:19:24 16° SSE
Lacrosse 4 Rocket 2.2 18:11:31 10° NNW 18:15:16 34° NE 18:16:33 27° E
Meteor 2-13 Rocket 4.4 18:10:10 10° N 18:16:22 87° ENE 18:22:32 10° S
Okean 1 Rocket 3.0 18:19:53 10° S 18:24:21 75° E 18:28:52 10° NNE
SL-14 R/B 3.2 18:20:58 10° N 18:24:54 63° ENE 18:26:28 34° SE
CENTAUR R/B 3.7 18:18:21 10° NW 18:26:08 56° SW 18:34:37 10° SSE
Resurs 01 Rocket 2.2 18:25:52 33° E 18:26:57 39° ENE 18:31:07 10° N
Cosmos 1833 Rocket 2.7 18:21:42 10° NNW 18:27:21 66° NE 18:30:11 30° SE
Cosmos 2251 Rocket 4.1 18:26:23 10° NNW 18:31:31 43° NE 18:33:15 33° E
Cosmos 1470 4.5 18:37:10 19° NE 18:37:10 19° NE 18:38:40 10° NNE
Cosmos 1766 3.1 18:31:25 10° S 18:35:21 85° E 18:39:21 10° NNE
ATLAS 2AS CENTAUR R/B 3.0 18:29:10 10° SSW 18:36:54 57° SE 18:44:32 10° NE
ERS-1 Rocket 4.5 18:37:39 20° ENE 18:38:03 20° NE 18:41:37 10° N
ATLAS 3B R/B 2.7 18:31:55 10° NW 18:38:47 87° NE 18:42:34 30° SE
Cosmos 1634 Rocket 3.9 18:34:06 10° S 18:40:13 72° E 18:46:26 10° NNE
Abrixas rocket 4.4 18:40:52 10° WSW 18:42:11 14° SW 18:42:11 14° SW
SPOT 3 Rocket 3.5 18:40:10 32° SSE 18:42:33 72° ENE 18:47:42 10° NNW
ARIANE 5 R/B 3.4 18:42:31 34° ENE 18:42:33 34° ENE 18:46:28 10° N
Cosmos 1125 Rocket 4.1 18:43:43 10° SW 18:48:59 60° WNW 18:54:16 10° NNE
Landsat 7 4.5 18:49:05 36° ENE 18:49:19 36° ENE 18:53:41 10° N
Cosmos 1892 Rocket 3.4 18:45:52 10° N 18:50:15 84° E 18:51:25 49° SSE
Resurs 1-3 3.5 18:48:54 41° SSE 18:50:24 90° E 18:54:51 10° NNW
SJ-6B 3.6 18:48:31 21° SSW 18:50:44 46° W 18:54:26 10° NNW
Cosmos 1655 Rocket 4.2 18:44:43 10° N 18:50:52 53° ENE 18:52:53 39° SE
SPOT 5 4.3 18:54:34 25° ENE 18:54:47 25° ENE 18:59:04 10° N
Cosmos 2026 Rocket 4.3 18:50:06 10° NNW 18:56:28 71° W 19:02:16 13° S
Cosmos 2285 Rocket 4.3 18:53:27 10° SW 18:59:45 69° WNW 19:06:08 10° NNE
Cosmos 1461 3.9 18:58:03 10° NW 19:02:33 39° NE 19:03:08 37° NE
TSX-5 4.3 19:06:48 10° SW 19:10:53 76° NW 19:16:15 10° NNE
CZ-2C R/B 3.1 19:05:53 10° N 19:11:24 64° WNW 19:16:56 10° SSW
CRYOSAT 2 4.2 19:06:51 10° N 19:11:47 72° E 19:12:05 69° SE
Cosmos 2180 Rocket 4.4 19:12:35 44° SSE 19:14:32 66° E 19:20:51 10° NNE
Cosmos 1340 Rocket 3.2 19:15:11 49° SW 19:15:59 62° WNW 19:19:59 10° N
Cosmos 2279 Rocket 3.9 19:12:59 26° S 19:16:48 83° E 19:23:06 10° NNE
MetOp-B 4.0 19:17:29 64° SE 19:18:16 78° ENE 19:23:40 10° NNW
Cosmos 2098 Rocket 3.8 19:13:00 10° N 19:19:56 80° ENE 19:21:19 56° SSE
Cosmos 2082 Rocket 2.1 19:14:42 10° NNW 19:20:22 90° ESE 19:21:17 64° SSE
Lacrosse 5 rocket 1.6 19:16:24 10° WNW 19:20:43 71° N 19:20:43 71° N
Spot 2 Rocket 3.5 19:25:14 65° ENE 19:25:14 65° ENE 19:30:07 10° N
OBJECT-B 2.9 19:28:48 25° W 19:28:48 25° W 19:31:26 10° NW
Cosmos 1809 Rocket 4.5 19:23:32 10° N 19:29:41 60° ENE 19:30:02 59° E
Cosmos 1602 Rocket 4.4 19:25:26 10° N 19:28:35 43° NNE 19:28:35 43° NNE
Cosmos 1626 Rocket 4.1 19:36:59 10° NNW 19:40:32 56° NNW 19:40:32 56° NNW
Terra 3.1 19:42:50 30° NNE 19:42:50 30° NNE 19:45:50 10° N
Cosmos 1140 Rocket 4.2 19:37:08 10° NNW 19:41:18 41° NNE 19:41:18 41° NNE
Cosmos 1455 Rocket 3.8 19:47:19 51° NW 19:47:19 51° NW 19:51:05 10° N
Cosmos 407 Rocket 4.0 19:41:59 10° NNW 19:46:14 50° NNE 19:46:14 50° NNE
SPOT 1/Viking Rocket 3.6 19:48:44 75° N 19:48:44 75° N 19:53:28 10° NNW
ISS -0.9 19:47:02 10° W 19:47:46 15° W 19:47:46 15° W
Meteor 2-14 Rocket 4.4 19:44:32 10° N 19:50:29 68° ENE 19:50:29 68° ENE
ATLAS CENTAUR R/B 3.6 19:49:41 10° NNW 19:51:16 16° N 19:51:16 16° N
Cosmos 2278 Rocket 2.2 19:51:32 49° SW 19:53:05 77° WNW 19:58:48 10° NNE
Lacrosse 4 Rocket 3.0 19:50:11 10° NW 19:52:52 31° W 19:52:52 31° W
Cosmos 909 Rocket 4.3 19:53:01 10° NW 19:59:23 57° WSW 19:59:55 56° SW
Cosmos 2266 Rocket 4.0 19:54:02 10° NNW 20:00:03 70° W 20:00:34 67° SW
Resurs 01 Rocket 3.2 20:03:26 29° W 20:03:33 29° W 20:07:28 10° NNW
NOSS 3-4 (A) 3.9 19:58:59 10° WSW 20:04:55 59° NW 20:11:26 10° NE
NOSS 3-4 (C) 3.9 19:59:05 10° WSW 20:05:01 60° NW 20:11:32 10° NE
Cosmos 614 Rocket 4.5 20:02:36 10° NNW 20:06:44 56° NW 20:06:44 56° NW
Cosmos 1833 Rocket 4.2 20:06:14 10° NW 20:10:52 27° WSW 20:11:54 25° WSW
ERS-1 Rocket 3.7 20:17:40 49° NNW 20:17:40 49° NNW 20:21:21 10° NNW
ARIANE 5 R/B 4.4 20:20:05 29° WNW 20:20:05 29° WNW 20:22:57 10° NNW
ATLAS 2AS CENTAUR R/B 3.5 20:20:13 10° WSW 20:28:05 58° NNW 20:35:44 10° NE
ATLAS 3B R/B 4.0 20:23:13 10° WNW 20:28:51 28° WSW 20:29:50 27° SW
SPOT 5 3.9 20:33:48 48° NW 20:33:48 48° NW 20:37:44 10° NNW
NOSS 3-1 (C) 4.2 20:42:52 10° NW 20:49:50 60° NE 20:50:02 60° NE
CZ-4C R/B 4.3 21:00:08 19° NE 21:00:08 19° NE 21:01:57 10° NE
Lacrosse 5 rocket 4.3 20:55:45 10° WNW 20:56:20 13° WNW 20:56:20 13° WNW
Cosmos 2082 Rocket 4.3 21:00:00 10° WNW 21:03:08 18° W 21:03:08 18° W
COSMOS 2455 4.1 21:14:36 35° NNE 21:14:36 35° NNE 21:18:16 10° NE
Cosmos 2297 Rocket 4.2 21:10:27 10° NNW 21:14:34 20° NNE 21:14:40 20° NNE
Terra 4.1 21:21:44 21° NW 21:21:44 21° NW 21:23:38 10° NNW
Cosmos 2369 Rocket 4.4 21:28:45 17° NE 21:28:45 17° NE 21:29:58 10° NE
Cosmos 2278 Rocket 4.3 21:33:44 10° W 21:38:07 23° NW 21:42:32 10° NNE
USA 229 DEB 4.4 21:43:51 10° NW 21:49:03 52° NW 21:49:03 52° NW
USA 229 4.4 21:43:57 10° NW 21:49:08 52° NW 21:49:08 52° NW
NOSS 3-1 (A) 4.4 21:56:06 10° NW 22:01:22 55° NW 22:01:22 55° NW
Cosmos 2227 Rocket 4.0 22:08:21 10° NNW 22:11:40 26° N 22:11:40 26° N
ATLAS 2AS CENTAUR R/B 4.3 22:13:24 10° WNW 22:20:36 36° N 22:27:29 10° ENE
Cosmos 1943 Rocket 4.0 22:24:03 26° N 22:24:03 26° N 22:26:45 10° NNE
CZ-4C R/B 3.8 22:45:17 34° N 22:45:17 34° N 22:51:15 10° NE
USA 234 4.4 22:52:32 10° ENE 22:56:09 34° ENE 22:56:09 34° ENE
Cosmos 2297 Rocket 4.1 22:54:07 10° NNW 22:56:26 25° NNW 22:56:26 25° NNW
Cosmos 2369 Rocket 4.0 23:10:31 27° N 23:10:31 27° N 23:13:54 10° NNE
Cosmos 2263 Rocket 4.3 23:15:18 10° NNW 23:19:39 22° NE 23:22:18 16° ENE
Resurs 1-4 Rocket 3.9 23:43:02 10° NNE 23:45:52 27° NE 23:45:52 27° NE
SL-16 R/B 3.3 23:50:37 47° N 23:50:37 47° N 23:55:02 10° NNW
CZ-2D R/B 3.8 23:49:17 10° NNE 23:52:17 28° NE 23:52:17 28° NE
